Wind_Speed
23 9 8 14 15 19 9 18 20 20 17 4 7 7 10 18 21 16 29 31 31 34 40 39 33 22 24 15 30 43 45 46 48 42 37 33 28 25 22 21 17 11 15 15
10 11 11 17 15 12 19 17 23 22 15 14 12 15 14 17 17 21 18 24 32 35 36 40 35 30 22 20 23 29 30 39 47 39 33 35 29 24 25 22 16 12 13 15
11 13 17 16 13 17 16 16 15 18 15 16 12 14 11 12 16 28 29 26 29 37 41 42 42 38 28 29 30 32 28 33 24 24 31 30 29 26 28 24 21 16 16 15
10 10 16 15 16 7 14 12 19 17 14 12 3 14 17 10 14 13 22 29 32 34 37 46 46 45 40 33 34 34 36 27 27 24 31 32 36 34 33 30 24 20 18 15
14 12 15 19 19 16 20 16 8 13 12 12 10 5 28 5 14 20 17 28 35 38 34 39 44 50 49 39 42 39 37 36 34 36 41 40 29 36 32 29 23 21 15 14
17 22 17 16 18 17 18 18 10 12 7 12 11 7 26 13 17 16 16 26 33 36 45 39 37 50 49 42 48 42 38 38 41 38 43 32 32 38 34 26 24 21 19 15
15 14 18 14 17 14 10 4 3 3 3 11 3 7 18 9 18 20 18 29 30 39 40 39 41 44 46 44 49 46 43 44 40 40 40 40 44 27 29 24 22 23 17 15
2 6 11 16 8 2 13 3 4 6 4 4 2 7 10 15 24 30 36 32 35 38 39 42 37 29 39 53 51 51 48 45 42 45 39 38 39 31 28 24 24 22 20 13
5 5 21 20 15 7 2 3 3 6 8 8 8 16 16 6 7 18 17 30 29 25 37 43 44 26 41 53 56 53 47 46 46 47 43 40 43 43 35 28 26 23 17 17
3 11 9 16 14 8 10 5 4 3 5 5 6 7 2 6 6 12 15 12 18 26 31 43 34 27 40 50 56 52 49 48 50 50 48 39 38 37 29 24 27 21 20 21
5 6 9 9 7 12 5 6 5 7 7 5 3 4 1 6 7 9 14 16 11 25 22 36 39 38 36 48 52 56 49 48 53 53 41 42 40 35 33 35 29 24 24 22
2 4 6 10 22 14 17 16 13 6 5 1 1 7 13 4 7 8 15 5 5 22 29 37 52 41 37 53 55 50 47 46 53 47 47 49 42 44 41 34 27 27 29 23
3 4 5 5 3 1 3 2 10 9 11 13 8 7 4 9 9 10 13 19 14 23 40 29 60 37 46 56 54 50 44 49 50 56 55 50 48 44 37 32 32 32 29 24
16 2 7 8 17 14 19 17 15 6 4 5 7 16 11 7 10 7 11 7 12 36 47 24 47 38 52 46 47 45 45 52 57 57 55 53 46 41 38 38 37 31 28 24
5 5 7 18 22 21 23 22 20 17 13 9 14 17 18 6 11 2 7 11 18 30 31 22 41 41 40 41 36 38 46 54 65 61 59 51 44 42 43 41 37 31 25 22
5 4 4 16 19 14 18 17 17 19 16 14 17 21 18 6 14 10 13 2 11 24 2 15 49 46 37 35 34 38 38 42 54 60 55 50 49 47 45 37 33 30 26 24
3 2 3 7 12 20 2 12 10 14 10 11 11 17 15 3 5 7 14 18 13 11 18 18 46 52 45 42 45 41 49 41 53 49 53 51 50 44 39 36 31 29 28 26
4 2 3 7 10 3 2 17 12 15 10 10 12 17 13 6 6 5 7 16 10 4 27 29 45 54 54 53 44 39 40 38 27 39 46 46 46 42 37 35 32 31 31 27
4 2 3 3 5 6 4 14 12 9 11 10 11 15 19 13 7 6 12 6 9 4 33 39 45 50 51 46 48 52 38 46 40 42 42 42 39 41 41 37 34 31 30 27
6 5 3 3 4 3 3 21 27 17 5 13 17 19 19 24 3 2 7 7 9 17 46 50 56 60 63 66 51 55 53 52 48 45 42 39 41 41 38 34 33 32 29 28
5 3 3 5 4 3 9 22 28 3 6 29 32 29 26 7 1 4 10 16 16 37 51 52 58 58 60 66 61 55 49 46 45 45 43 42 40 39 36 36 34 31 29 25
3 4 3 4 3 4 25 9 6 11 38 24 14 6 21 14 10 15 26 25 20 46 51 56 57 57 54 57 62 55 52 51 49 47 46 44 41 38 37 37 33 28 25 22
1 1 2 2 4 10 20 12 21 29 24 17 14 12 15 17 17 24 26 24 35 45 49 54 56 56 53 56 60 60 55 53 52 50 48 45 44 43 41 39 36 33 24 20
1 3 2 4 0 9 15 23 28 28 13 11 11 15 21 19 29 26 25 23 47 42 47 56 56 55 55 56 55 56 53 52 53 51 48 46 44 40 36 32 30 30 20 16
0 4 3 5 5 15 5 23 29 22 10 8 11 16 21 29 30 26 29 28 44 42 45 50 53 55 55 55 53 52 53 51 50 47 45 43 40 38 37 32 26 22 18 13
1 3 2 2 8 6 15 25 19 16 9 9 15 18 23 31 32 34 29 35 43 44 48 50 49 50 50 48 46 45 44 43 46 47 43 40 38 35 32 30 32 28 26 24
Wind_Direction
260 261 214 249 254 259 297 307 287 290 292 243 238 280 282 286 293 289 251 250 251 258 264 265 269 267 260 232 192 180 185 190 178 167 166 176 182 180 185 203 206 214 196 191
275 255 236 243 251 270 280 242 265 280 282 287 297 240 260 269 264 273 268 257 252 248 252 257 258 253 240 213 212 211 192 178 180 175 179 180 177 176 187 194 201 205 201 195
290 287 289 287 229 243 255 259 278 274 284 288 304 289 252 253 244 267 268 273 263 242 240 251 249 242 234 217 196 205 215 188 186 182 188 176 175 178 185 190 191 189 195 199
267 313 319 307 291 282 278 273 263 270 303 280 68 285 276 255 276 270 264 255 257 256 239 233 244 237 236 234 202 193 205 210 194 192 194 185 183 183 186 183 184 194 199 206
277 287 285 281 279 274 274 281 305 289 271 290 245 257 269 232 250 246 250 250 248 251 255 240 233 229 229 231 210 191 191 199 201 206 195 179 181 186 177 180 186 189 188 189
291 297 271 262 271 270 266 265 248 263 266 264 267 244 270 252 253 259 255 254 246 248 245 246 232 220 222 219 203 192 195 201 202 210 193 181 177 176 178 181 182 179 187 191
302 289 273 295 268 250 304 66 296 267 213 250 272 244 260 278 269 258 248 250 249 248 243 253 236 218 208 199 197 194 197 200 197 199 189 179 175 182 185 179 178 180 178 180
264 332 21 354 4 307 310 197 228 255 212 265 327 232 250 233 251 259 251 253 245 257 233 244 227 209 200 198 200 198 195 197 196 196 187 176 165 178 185 170 181 181 180 181
331 268 334 324 315 238 236 295 212 274 250 265 240 262 281 311 290 308 244 246 232 263 225 237 224 211 193 192 194 196 195 197 196 189 184 178 169 171 184 168 185 179 177 167
327 293 279 299 322 288 210 268 264 213 276 223 239 269 199 289 344 342 322 269 241 260 260 227 222 212 195 196 196 194 194 196 192 187 183 175 175 179 177 179 173 172 168 162
268 224 292 307 247 264 257 230 256 263 239 268 298 252 99 331 353 314 316 263 283 294 279 222 229 225 200 196 197 192 197 192 190 180 181 176 176 175 181 179 169 164 160 154
314 274 277 263 272 275 265 274 254 258 246 213 221 256 243 268 315 346 328 266 247 327 309 234 229 222 202 197 201 196 192 196 185 179 178 175 174 180 173 164 160 155 157 152
210 231 286 287 20 194 110 267 290 298 249 256 266 265 359 3 337 350 332 355 322 323 314 255 218 210 200 198 198 192 189 179 172 174 177 173 175 166 159 157 152 152 149 146
253 243 226 268 272 292 292 286 279 223 269 297 268 283 295 307 292 330 0 15 289 295 305 262 204 198 198 195 188 184 180 176 170 169 170 167 161 157 154 151 146 144 147 151
180 251 225 256 267 270 267 273 269 259 248 254 284 286 287 252 276 353 351 44 304 297 320 189 170 174 178 179 182 178 173 163 161 161 162 153 150 151 147 145 144 145 146 145
167 259 290 285 285 271 276 279 278 264 250 248 263 274 278 262 243 350 20 347 323 346 282 140 144 151 141 145 149 159 135 141 133 137 143 146 147 144 142 139 143 147 142 129
160 234 272 276 312 307 169 353 351 343 290 307 267 267 290 74 24 22 347 329 340 328 153 136 116 128 130 138 137 132 135 134 134 131 143 142 141 138 138 144 145 136 127 126
163 267 281 287 312 357 105 27 354 335 45 22 346 334 338 6 40 41 321 287 293 249 147 127 125 124 125 126 119 117 117 115 130 138 134 137 142 137 142 144 140 130 127 122
174 236 277 280 307 281 10 354 337 336 304 33 338 326 321 329 350 357 14 111 38 160 135 129 137 132 140 138 135 141 144 155 161 146 141 142 140 142 146 142 135 127 121 117
316 294 229 321 278 316 11 334 320 313 250 4 338 313 312 315 27 316 358 97 62 132 125 122 125 129 131 137 136 157 145 144 135 140 142 141 146 144 140 133 122 119 115 109
321 335 267 288 276 98 3 340 322 355 321 312 300 287 282 274 329 254 125 122 109 123 121 120 120 122 125 140 147 132 128 127 133 141 141 143 140 135 131 123 117 114 110 108
327 329 347 329 300 338 2 346 3 297 301 313 313 11 104 126 139 116 118 106 134 119 118 116 115 118 122 126 128 125 127 134 142 142 138 137 134 124 113 108 106 106 106 102
293 110 280 257 281 337 343 327 321 320 318 339 0 57 111 109 111 94 114 137 121 118 114 115 115 118 120 125 133 133 134 141 140 136 134 132 124 117 114 112 106 104 109 107
336 77 251 292 226 333 320 333 338 341 357 7 36 77 101 104 119 108 114 102 105 106 111 115 115 114 117 126 130 130 136 138 139 135 131 127 125 123 121 120 125 131 127 104
40 314 290 260 299 329 300 333 339 346 15 45 74 86 91 109 107 97 103 101 107 106 108 113 116 117 120 127 126 137 140 141 134 130 128 128 128 129 130 127 127 127 113 99
277 261 265 290 338 292 292 319 349 348 40 71 88 94 92 101 100 104 101 105 109 109 114 115 116 121 121 128 134 134 138 137 132 129 130 131 131 131 129 123 115 106 102 96
Height
1466 1468 1473 1471 1469 1465 1470 1469 1464 1448 1439 1441 1441 1443 1438 1434 1434 1434 1428 1425 1427 1428 1425 1427 1430 1434 1437 1434 1431 1437 1435 1451 1455 1452 1454 1473 1485 1494 1497 1504 1509 1513 1515 1517
1462 1462 1456 1455 1458 1465 1460 1464 1457 1446 1436 1436 1433 1433 1433 1432 1429 1427 1426 1423 1421 1425 1424 1423 1427 1430 1436 1435 1431 1434 1440 1434 1441 1448 1472 1468 1479 1490 1497 1502 1508 1512 1514 1515
1461 1455 1449 1446 1449 1454 1452 1455 1450 1447 1436 1428 1435 1432 1429 1423 1421 1419 1419 1421 1420 1418 1421 1420 1423 1426 1432 1434 1435 1434 1430 1450 1432 1450 1473 1464 1477 1488 1493 1499 1507 1509 1511 1512
1453 1448 1449 1447 1447 1444 1450 1441 1437 1438 1443 1449 1438 1447 1428 1422 1421 1417 1414 1415 1415 1416 1417 1420 1416 1420 1425 1430 1435 1439 1439 1432 1444 1452 1454 1464 1475 1483 1490 1497 1501 1505 1509 1511
1449 1449 1449 1446 1442 1440 1439 1436 1438 1437 1438 1441 1434 1451 1401 1419 1416 1409 1406 1406 1406 1407 1410 1412 1415 1415 1419 1424 1430 1436 1444 1448 1447 1449 1454 1463 1468 1482 1492 1491 1496 1502 1507 1512
1444 1441 1439 1434 1431 1430 1429 1431 1432 1435 1440 1445 1421 1438 1397 1413 1406 1399 1398 1398 1399 1398 1401 1404 1408 1409 1413 1417 1424 1431 1439 1446 1450 1452 1458 1464 1450 1471 1485 1486 1488 1497 1505 1510
1444 1437 1429 1428 1423 1425 1431 1443 1457 1452 1456 1434 1419 1431 1403 1402 1396 1391 1390 1389 1390 1391 1394 1394 1397 1400 1405 1410 1418 1424 1432 1438 1446 1450 1458 1459 1448 1473 1477 1483 1487 1499 1504 1509
1457 1451 1430 1431 1433 1439 1441 1434 1451 1443 1440 1431 1416 1427 1402 1387 1381 1382 1382 1379 1380 1381 1385 1387 1389 1391 1396 1402 1410 1416 1423 1432 1440 1447 1454 1458 1458 1471 1480 1478 1488 1493 1505 1509
1458 1448 1435 1431 1428 1432 1429 1441 1433 1437 1433 1432 1415 1395 1382 1379 1379 1377 1368 1368 1371 1373 1375 1379 1381 1386 1390 1394 1402 1410 1418 1426 1434 1443 1449 1456 1464 1472 1477 1478 1487 1493 1503 1508
1461 1452 1439 1432 1429 1422 1423 1428 1441 1438 1430 1422 1403 1390 1389 1385 1378 1373 1367 1363 1364 1366 1371 1370 1373 1383 1389 1395 1400 1408 1414 1420 1430 1441 1451 1459 1465 1469 1474 1480 1486 1495 1502 1506
1461 1460 1442 1440 1428 1424 1425 1430 1429 1426 1428 1423 1414 1402 1377 1381 1377 1379 1369 1362 1362 1365 1369 1361 1365 1375 1386 1393 1398 1399 1412 1418 1426 1439 1450 1457 1463 1469 1474 1481 1486 1491 1500 1505
1458 1456 1447 1433 1415 1417 1418 1419 1419 1427 1417 1412 1413 1396 1375 1378 1377 1371 1368 1356 1359 1368 1364 1364 1356 1366 1381 1386 1389 1399 1409 1418 1426 1437 1446 1456 1463 1468 1472 1481 1487 1492 1501 1505
1458 1452 1442 1428 1419 1417 1418 1416 1417 1418 1413 1407 1409 1392 1372 1372 1370 1368 1366 1352 1356 1361 1362 1356 1349 1363 1373 1379 1386 1398 1407 1417 1423 1433 1443 1450 1457 1464 1471 1482 1488 1499 1503 1508
1449 1454 1446 1439 1425 1419 1419 1412 1409 1416 1412 1400 1399 1382 1372 1373 1370 1366 1365 1363 1366 1367 1355 1341 1345 1358 1366 1377 1390 1396 1408 1413 1421 1426 1435 1444 1456 1463 1473 1483 1492 1498 1504 1508
1446 1443 1439 1428 1418 1414 1409 1402 1400 1399 1400 1404 1388 1378 1361 1370 1363 1367 1364 1369 1377 1358 1347 1332 1342 1355 1367 1380 1389 1400 1407 1414 1411 1424 1430 1443 1457 1469 1477 1487 1490 1497 1504 1513
1443 1438 1434 1421 1402 1396 1398 1392 1390 1381 1382 1384 1379 1369 1352 1361 1361 1356 1361 1367 1362 1352 1347 1348 1339 1355 1366 1378 1391 1400 1411 1415 1396 1400 1432 1448 1460 1471 1479 1485 1492 1497 1506 1508
1442 1440 1433 1416 1398 1392 1396 1401 1391 1383 1376 1377 1377 1363 1353 1360 1361 1362 1354 1349 1351 1351 1354 1355 1346 1354 1368 1380 1392 1410 1410 1404 1411 1421 1443 1455 1466 1468 1478 1488 1496 1501 1501 1506
1439 1440 1433 1422 1410 1401 1397 1399 1397 1392 1384 1384 1380 1371 1366 1364 1366 1367 1367 1357 1351 1348 1351 1358 1355 1365 1379 1388 1396 1404 1422 1421 1427 1447 1453 1461 1467 1467 1481 1493 1499 1501 1501 1505
1434 1435 1429 1421 1410 1400 1396 1404 1407 1399 1387 1388 1382 1374 1366 1370 1363 1358 1353 1349 1350 1343 1352 1361 1363 1372 1384 1395 1405 1416 1431 1439 1445 1456 1460 1468 1468 1478 1489 1496 1497 1497 1498 1506
1430 1426 1430 1422 1408 1395 1416 1411 1399 1396 1383 1387 1387 1379 1375 1366 1371 1367 1358 1351 1346 1353 1354 1364 1371 1380 1391 1406 1416 1427 1434 1442 1450 1458 1463 1472 1484 1490 1491 1494 1492 1498 1502 1506
1432 1428 1425 1418 1407 1407 1417 1412 1394 1388 1393 1387 1384 1377 1377 1371 1372 1367 1363 1356 1357 1361 1361 1372 1375 1386 1396 1407 1413 1432 1436 1448 1455 1461 1470 1484 1491 1492 1492 1492 1495 1498 1503 1510
1440 1442 1430 1429 1413 1414 1419 1413 1414 1410 1395 1384 1375 1368 1373 1374 1371 1368 1362 1357 1369 1365 1371 1377 1385 1397 1408 1416 1421 1433 1445 1457 1464 1473 1481 1491 1494 1492 1489 1487 1496 1506 1511 1518
1439 1445 1445 1443 1429 1425 1426 1421 1414 1407 1395 1387 1379 1376 1374 1376 1370 1361 1365 1373 1366 1374 1378 1389 1395 1407 1422 1427 1430 1435 1451 1462 1470 1476 1486 1486 1481 1482 1488 1500 1505 1512 1519 1522
1441 1443 1442 1438 1428 1426 1422 1418 1411 1403 1397 1389 1383 1380 1381 1383 1382 1382 1382 1379 1373 1380 1390 1396 1406 1414 1423 1433 1440 1444 1453 1460 1464 1469 1477 1480 1484 1492 1499 1506 1513 1518 1522 1525
1446 1444 1439 1435 1430 1425 1420 1417 1412 1406 1399 1394 1389 1385 1388 1385 1381 1386 1387 1387 1387 1395 1399 1404 1412 1422 1433 1442 1449 1454 1458 1466 1469 1473 1479 1486 1494 1500 1505 1512 1519 1523 1525 1527
1444 1441 1439 1433 1435 1433 1424 1419 1413 1409 1404 1401 1396 1391 1389 1387 1391 1391 1394 1399 1400 1405 1411 1415 1421 1429 1439 1445 1450 1459 1466 1469 1471 1477 1486 1493 1498 1503 1510 1515 1518 1524 1526 1526